EST,Max TemperatureF,Mean TemperatureF,Min TemperatureF,Max Dew PointF,MeanDew PointF,Min DewpointF,Max Humidity, Mean Humidity, Min Humidity, Max Sea Level PressureIn, Mean Sea Level PressureIn, Min Sea Level PressureIn, Max VisibilityMiles, Mean VisibilityMiles, Min VisibilityMiles, Max Wind SpeedMPH, Mean Wind SpeedMPH, Max Gust SpeedMPH,PrecipitationIn, CloudCover, Events, WindDirDegrees
2012-1-1,44,37,30,39,34,25,93,86,75,30.03,29.75,29.53,10,9,1,26,13,37,0.00,7,,201
2012-1-2,28,24,19,25,19,12,93,81,68,29.85,29.74,29.67,10,3,0,22,15,33,0.00,8,,274
2012-1-3,17,8,0,14,3,-8,100,79,67,30.16,30.01,29.85,10,4,0,20,11,30,0.00,7,,338
2012-1-4,24,11,-2,14,5,-8,92,75,54,30.13,29.96,29.82,10,10,10,17,8,25,0.00,4,,202
2012-1-5,30,26,23,23,21,16,86,78,69,29.91,29.86,29.80,10,10,10,14,9,16,0.00,7,,235
2012-1-6,46,37,28,30,26,21,80,64,50,29.74,29.71,29.67,10,10,10,20,10,25,0.00,0,,203
2012-1-7,41,37,33,30,29,28,81,69,61,30.02,29.80,29.66,10,10,10,20,11,26,0.00,4,,246
2012-1-8,33,28,23,27,19,16,86,70,64,30.29,30.21,30.05,10,10,10,15,9,20,0.00,7,,307
2012-1-9,37,28,19,21,18,16,93,67,41,30.24,30.10,29.93,10,10,10,13,7,16,0.00,1,,192
2012-1-10,35,32,28,28,25,21,86,72,56,29.98,29.92,29.84,10,10,10,15,10,22,0.00,6,,273
2012-1-11,41,34,26,34,27,23,93,79,57,29.93,29.81,29.58,10,10,7,15,7,21,0.00,2,,162
2012-1-12,39,37,35,39,36,34,100,93,93,29.52,29.39,29.32,10,8,0,14,9,22,0.00,8,,185
2012-1-13,37,26,14,37,15,9,100,81,73,29.73,29.47,29.25,6,2,0,24,16,33,0.00,8,,240
2012-1-14,19,16,8,16,13,5,93,83,74,30.09,29.92,29.77,10,2,0,17,11,24,0.00,8,,279
2012-1-15,15,6,-2,9,2,-8,100,80,58,30.42,30.31,30.12,10,10,4,5,1,,0.00,0,,186
2012-1-16,35,22,8,34,17,3,93,75,52,30.36,30.11,29.91,10,9,3,18,12,28,0.00,3,,184
2012-1-17,50,38,26,45,37,21,100,91,75,29.87,29.64,29.39,10,7,1,32,14,51,0.00,8,,218
2012-1-18,26,20,15,21,13,5,93,76,62,30.10,30.01,29.79,10,6,1,20,13,31,0.00,,,298
2012-1-19,24,18,12,21,12,7,93,80,63,30.03,29.85,29.70,10,6,0,18,10,31,0.00,8,,203
2012-1-20,17,14,10,10,7,3,92,76,58,30.19,30.10,29.95,10,7,2,10,6,17,0.00,8,,244
2012-1-21,21,18,15,18,15,12,93,84,74,30.18,30.01,29.90,10,8,1,10,6,,0.00,8,,20
2012-1-22,30,21,12,25,16,9,92,78,60,30.25,30.18,30.08,10,10,10,21,9,30,0.00,0,,157
2012-1-23,42,35,28,39,33,25,93,89,81,30.03,29.81,29.62,10,10,5,23,15,32,0.00,8,,166
2012-1-24,35,32,28,28,25,21,86,80,70,30.19,29.99,29.79,10,9,5,25,17,38,0.00,8,,246
2012-1-25,28,27,26,25,22,19,86,79,74,30.31,30.26,30.19,10,10,10,14,8,17,0.00,8,,270
2012-1-26,39,32,26,37,30,23,100,92,80,30.14,29.90,29.59,10,4,0,10,4,,0.00,8,,142
2012-1-27,44,37,30,43,33,25,100,91,80,29.94,29.57,29.30,10,4,0,23,11,31,0.00,8,,250
2012-1-28,32,28,24,28,24,16,93,84,64,29.98,29.86,29.73,10,6,0,30,11,37,0.00,7,,214
2012-1-29,33,28,23,27,18,14,100,67,48,30.02,29.95,29.84,10,8,0,37,14,58,0.00,7,,229
2012-1-30,30,24,19,19,14,9,93,69,51,30.23,30.13,30.01,10,9,2,17,10,22,0.00,8,,223
2012-1-31,51,42,32,34,27,21,65,56,47,30.01,29.98,29.93,10,10,10,17,11,26,0.00,1,,214